Omitama, Japan

10:36 PM JST on February 24, 2017 (GMT +0900)
Hyakuri Aero

Weather History for RJAH - November, 2012

Change the Weather History Date:

Tuesday, November 20, 2012

  Actual Average Record
Temperature  
Mean Temperature 46 °F -  
Max Temperature 62 °F 49 °F 66 °F (2016)
Min Temperature 30 °F 35 °F 30 °F (1998)
Degree Days  
Heating Degree Days 19    
Moisture  
Dew Point 34 °F    
Average Humidity 70    
Maximum Humidity 100    
Minimum Humidity 27    
Precipitation  
Precipitation 0.00 in - - ()
Sea Level Pressure  
Sea Level Pressure 29.80 in    
Wind  
Wind Speed 3 mph ()    
Max Wind Speed 14 mph    
Max Gust Speed -    
Visibility 5.9 miles    
Events Fog    
Averages and records for this station are not official NWS values.
T = Trace of Precipitation, MM = Missing Value Source: Averaged Metar Reports

Daily Weather History Graph

Daily Weather History Graph

Search for Another Location

Airport or City:

Trip Planner

Search our weather history database for the weather conditions in past years. The results will help you decide how hot, cold, wet, or windy it might be!

Date:

Astronomy

Nov. 20, 2012 Rise Set
Actual Time 6:20 AM JST 4:27 PM JST
Civil Twilight 5:52 AM JST 4:55 PM JST
Nautical Twilight 5:21 AM JST 5:26 PM JST
Astronomical Twilight 4:50 AM JST 5:56 PM JST
Moon 11:39 AM JST (11/20) 11:12 PM JST (11/20)
Length of Visible Light 11h 02m
Length of Day
10h 07m
Waxing Crescent, 45% of the Moon is Illuminated
Nov 20
Waxing Crescent
Nov 20
First Quarter
Nov 28
Full
Dec 7
Last Quarter
Dec 13
New

Hourly Weather History & Observations

Time (JST) Temp. Windchill Dew Point Humidity Pressure Visibility Wind Dir Wind Speed Gust Speed Precip Events Conditions
12:00 AM 33.8 °F - 33.8 °F 100% 29.77 in 6.2 mi SSW 2.3 mph - N/A   Partly Cloudy
1:00 AM 37.4 °F - 35.6 °F 93% 29.74 in 6.2 mi ESE 2.3 mph - N/A   Partly Cloudy
2:00 AM 35.6 °F - 35.6 °F 100% 29.74 in 6.2 mi Variable 1.2 mph - N/A   Partly Cloudy
3:00 AM 33.8 °F - 33.8 °F 100% 29.74 in 6.2 mi Variable 1.2 mph - N/A   Partly Cloudy
4:00 AM 33.8 °F - 32.0 °F 93% 29.74 in 5.0 mi Variable 1.2 mph - N/A   Partly Cloudy
5:00 AM 32.0 °F - 32.0 °F 100% 29.74 in 6.2 mi Variable 2.3 mph - N/A   Partly Cloudy
6:00 AM 30.2 °F 25.4 °F 30.2 °F 100% 29.74 in 5.0 mi NNE 4.6 mph - N/A   Partly Cloudy
6:10 AM 30.2 °F - 28.4 °F 93% 29.77 in 4.3 mi Calm Calm - N/A Fog Fog
7:00 AM 32.0 °F - 32.0 °F 100% 29.77 in 4.3 mi Variable 2.3 mph - N/A   Partly Cloudy
7:20 AM 32.0 °F - 32.0 °F 100% 29.77 in 5.0 mi Calm Calm - N/A   Partly Cloudy
8:00 AM 37.4 °F - 35.6 °F 93% 29.80 in 6.2 mi Variable 2.3 mph - N/A   Partly Cloudy
9:00 AM 48.2 °F - 39.2 °F 71% 29.80 in 6.2 mi Variable 2.3 mph - N/A   Partly Cloudy
10:00 AM 55.4 °F - 39.2 °F 54% 29.80 in 6.2 mi Variable 1.2 mph - N/A   Partly Cloudy
11:00 AM 59.0 °F - 37.4 °F 45% 29.77 in 6.2 mi North 4.6 mph - N/A   Partly Cloudy
12:00 PM 60.8 °F - 37.4 °F 42% 29.77 in 6.2 mi NW 11.5 mph - N/A   Partly Cloudy
1:00 PM 62.6 °F - 35.6 °F 37% 29.74 in 6.2 mi NW 13.8 mph - N/A   Partly Cloudy
2:00 PM 62.6 °F - 28.4 °F 27% 29.74 in 6.2 mi WNW 12.7 mph - N/A   Partly Cloudy
3:00 PM 62.6 °F - 30.2 °F 30% 29.77 in 6.2 mi West 13.8 mph - N/A   Partly Cloudy
4:00 PM 60.8 °F - 30.2 °F 31% 29.80 in 6.2 mi WNW 8.1 mph - N/A   Partly Cloudy
5:00 PM 57.2 °F - 30.2 °F 36% 29.80 in 6.2 mi West 3.5 mph - N/A   Partly Cloudy
6:00 PM 51.8 °F - 35.6 °F 54% 29.83 in 6.2 mi NNE 5.8 mph - N/A   Partly Cloudy
7:00 PM 46.4 °F 42.9 °F 33.8 °F 62% 29.86 in 6.2 mi North 6.9 mph - N/A   Partly Cloudy
7:38 PM 48.2 °F - 33.8 °F 58% 29.86 in 6.2 mi North 3.5 mph - N/A   Mostly Cloudy
8:00 PM 48.2 °F - 33.8 °F 58% 29.86 in 6.2 mi North 3.5 mph - N/A   Mostly Cloudy
9:00 PM 46.4 °F 45.2 °F 33.8 °F 62% 29.89 in 6.2 mi North 3.5 mph - N/A   Mostly Cloudy
10:00 PM 42.8 °F 38.6 °F 33.8 °F 70% 29.89 in 6.2 mi North 6.9 mph - N/A   Mostly Cloudy
10:32 PM 42.8 °F 41.1 °F 32.0 °F 66% 29.89 in 6.2 mi North 3.5 mph - N/A   Partly Cloudy
11:00 PM 41.0 °F 38.0 °F 33.8 °F 76% 29.89 in 6.2 mi North 4.6 mph - N/A   Partly Cloudy